Time,TemperatureF,DewpointF,PressureIn,WindDirection,WindDirectionDegrees,WindSpeedMPH,WindSpeedGustMPH,Humidity,HourlyPrecipIn,Conditions,Clouds,dailyrainin,SolarRadiationWatts/m^2,SoftwareType,DateUTC
2013-02-28 00:01:00,31.0,23.0,-100.00,NNW,335,3.0,11.0,72,0.00,,,0.00,0.000000,,2013-02-28 08:01:00,
2013-02-28 00:11:00,31.0,23.0,-100.00,NNW,335,3.0,11.0,72,0.00,,,0.00,0.000000,,2013-02-28 08:11:00,
2013-02-28 00:21:00,31.0,23.0,-100.00,NNW,335,3.0,11.0,72,0.00,,,0.00,0.000000,,2013-02-28 08:21:00,
2013-02-28 00:31:00,31.0,23.0,-100.00,NNW,335,3.0,11.0,72,0.00,,,0.00,0.000000,,2013-02-28 08:31:00,
2013-02-28 00:53:00,31.0,21.0,-100.00,NNW,334,3.0,10.0,67,0.00,,,0.00,0.000000,,2013-02-28 08:53:00,
2013-02-28 01:03:00,31.0,21.0,-100.00,NNW,334,3.0,10.0,67,0.00,,,0.00,0.000000,,2013-02-28 09:03:00,
2013-02-28 01:11:00,31.0,21.0,-100.00,NNW,334,3.0,10.0,67,0.00,,,0.00,0.000000,,2013-02-28 09:11:00,
2013-02-28 01:21:00,31.0,21.0,-100.00,NNW,334,3.0,10.0,67,0.00,,,0.00,0.000000,,2013-02-28 09:21:00,
2013-02-28 01:31:00,31.0,21.0,-100.00,NNW,334,3.0,10.0,67,0.00,,,0.00,0.000000,,2013-02-28 09:31:00,
2013-02-28 01:52:00,31.0,22.0,-100.00,NNW,335,3.0,8.0,68,0.00,,,0.00,0.000000,,2013-02-28 09:52:00,
2013-02-28 02:01:00,31.0,22.0,-100.00,NNW,335,3.0,8.0,68,0.00,,,0.00,0.000000,,2013-02-28 10:01:00,
2013-02-28 02:11:00,31.0,22.0,-100.00,NNW,335,3.0,8.0,68,0.00,,,0.00,0.000000,,2013-02-28 10:11:00,
2013-02-28 02:21:00,31.0,22.0,-100.00,NNW,335,3.0,8.0,68,0.00,,,0.00,0.000000,,2013-02-28 10:21:00,
2013-02-28 02:31:00,31.0,22.0,-100.00,NNW,335,3.0,8.0,68,0.00,,,0.00,0.000000,,2013-02-28 10:31:00,
2013-02-28 02:52:00,31.0,24.0,-100.00,NNW,335,1.0,9.0,76,0.00,,,0.00,0.000000,,2013-02-28 10:52:00,
2013-02-28 03:01:00,31.0,24.0,-100.00,NNW,335,1.0,9.0,76,0.00,,,0.00,0.000000,,2013-02-28 11:01:00,
2013-02-28 03:11:00,31.0,24.0,-100.00,NNW,335,1.0,9.0,76,0.00,,,0.00,0.000000,,2013-02-28 11:11:00,
2013-02-28 03:21:00,31.0,24.0,-100.00,NNW,335,1.0,9.0,76,0.00,,,0.00,0.000000,,2013-02-28 11:21:00,
2013-02-28 03:31:00,31.0,24.0,-100.00,NNW,335,1.0,9.0,76,0.00,,,0.00,0.000000,,2013-02-28 11:31:00,
2013-02-28 03:52:00,30.0,27.0,-100.00,NNW,335,1.0,3.0,88,0.00,,,0.00,0.000000,,2013-02-28 11:52:00,
2013-02-28 04:01:00,30.0,27.0,-100.00,NNW,335,1.0,3.0,88,0.00,,,0.00,0.000000,,2013-02-28 12:01:00,
2013-02-28 04:11:00,30.0,27.0,-100.00,NNW,335,1.0,3.0,88,0.00,,,0.00,0.000000,,2013-02-28 12:11:00,
2013-02-28 04:21:00,30.0,27.0,-100.00,NNW,335,1.0,3.0,88,0.00,,,0.00,0.000000,,2013-02-28 12:21:00,
2013-02-28 04:31:00,30.0,27.0,-100.00,NNW,335,1.0,3.0,88,0.00,,,0.00,0.000000,,2013-02-28 12:31:00,
2013-02-28 04:52:00,28.0,27.0,-100.00,NNW,335,1.0,3.0,94,0.00,,,0.00,0.000000,,2013-02-28 12:52:00,
2013-02-28 05:01:00,28.0,27.0,-100.00,NNW,335,1.0,3.0,94,0.00,,,0.00,0.000000,,2013-02-28 13:01:00,
2013-02-28 05:11:00,28.0,27.0,-100.00,NNW,335,1.0,3.0,94,0.00,,,0.00,0.000000,,2013-02-28 13:11:00,
2013-02-28 05:21:00,28.0,27.0,-100.00,NNW,335,1.0,3.0,94,0.00,,,0.00,0.000000,,2013-02-28 13:21:00,
2013-02-28 05:31:00,28.0,27.0,-100.00,NNW,335,1.0,3.0,94,0.00,,,0.00,0.000000,,2013-02-28 13:31:00,
2013-02-28 05:52:00,29.0,28.0,-100.00,NNW,335,0.0,3.0,96,0.00,,,0.00,0.000000,,2013-02-28 13:52:00,
2013-02-28 06:01:00,29.0,28.0,-100.00,NNW,335,0.0,3.0,96,0.00,,,0.00,0.000000,,2013-02-28 14:01:00,
2013-02-28 06:11:00,29.0,28.0,-100.00,NNW,335,0.0,3.0,96,0.00,,,0.00,0.000000,,2013-02-28 14:11:00,
2013-02-28 06:21:00,29.0,28.0,-100.00,NNW,335,0.0,3.0,96,0.00,,,0.00,0.000000,,2013-02-28 14:21:00,
2013-02-28 06:31:00,29.0,28.0,-100.00,NNW,335,0.0,3.0,96,0.00,,,0.00,0.000000,,2013-02-28 14:31:00,
2013-02-28 06:52:00,29.0,28.0,-100.00,NNW,335,1.0,3.0,96,0.00,,,-99.99,0.000000,,2013-02-28 14:52:00,
2013-02-28 07:02:00,29.0,28.0,-100.00,NNW,335,1.0,3.0,96,0.00,,,-99.99,0.000000,,2013-02-28 15:02:00,
2013-02-28 07:11:00,29.0,28.0,-100.00,NNW,335,1.0,3.0,96,0.00,,,-99.99,0.000000,,2013-02-28 15:11:00,
2013-02-28 07:21:00,29.0,28.0,-100.00,NNW,335,1.0,3.0,96,0.00,,,-99.99,0.000000,,2013-02-28 15:21:00,
2013-02-28 07:31:00,29.0,28.0,-100.00,NNW,335,1.0,3.0,96,0.00,,,-99.99,0.000000,,2013-02-28 15:31:00,
2013-02-28 07:52:00,29.0,28.0,-100.00,NNW,335,1.0,3.0,97,0.00,,,0.00,4.000000,,2013-02-28 15:52:00,
2013-02-28 08:01:00,29.0,28.0,-100.00,NNW,335,1.0,3.0,97,0.00,,,0.00,4.000000,,2013-02-28 16:01:00,
2013-02-28 08:11:00,29.0,28.0,-100.00,NNW,335,1.0,3.0,97,0.00,,,0.00,4.000000,,2013-02-28 16:11:00,
2013-02-28 08:21:00,29.0,28.0,-100.00,NNW,335,1.0,3.0,97,0.00,,,0.00,4.000000,,2013-02-28 16:21:00,
2013-02-28 08:31:00,29.0,28.0,-100.00,NNW,335,1.0,3.0,97,0.00,,,0.00,4.000000,,2013-02-28 16:31:00,
2013-02-28 08:52:00,32.0,30.0,-100.00,NNW,335,0.0,2.0,93,0.00,,,0.00,21.000000,,2013-02-28 16:52:00,
2013-02-28 09:01:00,32.0,30.0,-100.00,NNW,335,0.0,2.0,93,0.00,,,0.00,21.000000,,2013-02-28 17:01:00,
2013-02-28 09:11:00,32.0,30.0,-100.00,NNW,335,0.0,2.0,93,0.00,,,0.00,21.000000,,2013-02-28 17:11:00,
2013-02-28 09:21:00,32.0,30.0,-100.00,NNW,335,0.0,2.0,93,0.00,,,0.00,21.000000,,2013-02-28 17:21:00,
2013-02-28 09:31:00,32.0,30.0,-100.00,NNW,335,0.0,2.0,93,0.00,,,0.00,21.000000,,2013-02-28 17:31:00,
2013-02-28 09:52:00,33.0,30.0,-100.00,NNW,335,0.0,2.0,89,0.00,,,0.00,27.000000,,2013-02-28 17:52:00,
2013-02-28 10:02:00,33.0,30.0,-100.00,NNW,335,0.0,2.0,89,0.00,,,0.00,27.000000,,2013-02-28 18:02:00,
2013-02-28 10:11:00,33.0,30.0,-100.00,NNW,335,0.0,2.0,89,0.00,,,0.00,27.000000,,2013-02-28 18:11:00,
2013-02-28 10:21:00,33.0,30.0,-100.00,NNW,335,0.0,2.0,89,0.00,,,0.00,27.000000,,2013-02-28 18:21:00,
2013-02-28 10:31:00,33.0,30.0,-100.00,NNW,335,0.0,2.0,89,0.00,,,0.00,27.000000,,2013-02-28 18:31:00,
2013-02-28 10:52:00,34.0,31.0,-100.00,NNW,335,0.0,2.0,87,0.00,,,0.00,43.000000,,2013-02-28 18:52:00,
2013-02-28 11:01:00,34.0,31.0,-100.00,NNW,335,0.0,2.0,87,0.00,,,0.00,43.000000,,2013-02-28 19:01:00,
2013-02-28 11:11:00,34.0,31.0,-100.00,NNW,335,0.0,2.0,87,0.00,,,0.00,43.000000,,2013-02-28 19:11:00,
2013-02-28 11:21:00,34.0,31.0,-100.00,NNW,335,0.0,2.0,87,0.00,,,0.00,43.000000,,2013-02-28 19:21:00,
2013-02-28 11:31:00,34.0,31.0,-100.00,NNW,335,0.0,2.0,87,0.00,,,0.00,43.000000,,2013-02-28 19:31:00,
2013-02-28 11:52:00,36.0,31.0,-100.00,NNW,335,1.0,3.0,83,0.00,,,0.00,122.000000,,2013-02-28 19:52:00,
2013-02-28 12:01:00,36.0,31.0,-100.00,NNW,335,1.0,3.0,83,0.00,,,0.00,122.000000,,2013-02-28 20:01:00,
2013-02-28 12:12:00,36.0,31.0,-100.00,NNW,335,1.0,3.0,83,0.00,,,0.00,122.000000,,2013-02-28 20:12:00,
2013-02-28 12:21:00,36.0,31.0,-100.00,NNW,335,1.0,3.0,83,0.00,,,0.00,122.000000,,2013-02-28 20:21:00,
2013-02-28 12:31:00,36.0,31.0,-100.00,NNW,335,1.0,3.0,83,0.00,,,0.00,122.000000,,2013-02-28 20:31:00,
2013-02-28 12:52:00,34.0,31.0,-100.00,NNW,335,2.0,3.0,89,0.00,,,0.00,161.000000,,2013-02-28 20:52:00,
2013-02-28 13:01:00,34.0,31.0,-100.00,NNW,335,2.0,3.0,89,0.00,,,0.00,161.000000,,2013-02-28 21:01:00,
2013-02-28 13:11:00,34.0,31.0,-100.00,NNW,335,2.0,3.0,89,0.00,,,0.00,161.000000,,2013-02-28 21:11:00,
2013-02-28 13:22:00,34.0,31.0,-100.00,NNW,335,2.0,3.0,89,0.00,,,0.00,161.000000,,2013-02-28 21:22:00,
2013-02-28 13:31:00,34.0,31.0,-100.00,NNW,335,2.0,3.0,89,0.00,,,0.00,161.000000,,2013-02-28 21:31:00,
2013-02-28 13:52:00,35.0,31.0,-100.00,NNW,335,2.0,4.0,86,0.09,,,0.09,184.000000,,2013-02-28 21:52:00,
2013-02-28 14:01:00,35.0,31.0,-100.00,NNW,335,2.0,4.0,86,0.09,,,0.09,184.000000,,2013-02-28 22:01:00,
2013-02-28 14:11:00,35.0,31.0,-100.00,NNW,335,2.0,4.0,86,0.09,,,0.09,184.000000,,2013-02-28 22:11:00,
2013-02-28 14:21:00,35.0,31.0,-100.00,NNW,335,2.0,4.0,86,0.09,,,0.09,184.000000,,2013-02-28 22:21:00,
2013-02-28 14:31:00,35.0,31.0,-100.00,NNW,335,2.0,4.0,86,0.09,,,0.09,184.000000,,2013-02-28 22:31:00,
2013-02-28 14:52:00,37.0,33.0,-100.00,NNW,335,1.0,5.0,84,0.14,,,0.23,202.000000,,2013-02-28 22:52:00,
2013-02-28 15:01:00,37.0,33.0,-100.00,NNW,335,1.0,5.0,84,0.14,,,0.23,202.000000,,2013-02-28 23:01:00,
2013-02-28 15:11:00,37.0,33.0,-100.00,NNW,335,1.0,5.0,84,0.14,,,0.23,202.000000,,2013-02-28 23:11:00,
2013-02-28 15:21:00,37.0,33.0,-100.00,NNW,335,1.0,5.0,84,0.14,,,0.23,202.000000,,2013-02-28 23:21:00,
2013-02-28 15:31:00,37.0,33.0,-100.00,NNW,335,1.0,5.0,84,0.14,,,0.23,202.000000,,2013-02-28 23:31:00,
2013-02-28 15:53:00,34.0,31.0,-100.00,NNW,335,2.0,5.0,89,0.08,,,0.31,214.000000,,2013-02-28 23:53:00,
2013-02-28 16:01:00,34.0,31.0,-100.00,NNW,335,2.0,5.0,89,0.08,,,0.31,214.000000,,2013-03-01 00:01:00,
2013-02-28 16:11:00,34.0,31.0,-100.00,NNW,335,2.0,5.0,89,0.08,,,0.31,214.000000,,2013-03-01 00:11:00,
2013-02-28 16:22:00,34.0,31.0,-100.00,NNW,335,2.0,5.0,89,0.08,,,0.31,214.000000,,2013-03-01 00:22:00,
2013-02-28 16:32:00,34.0,31.0,-100.00,NNW,335,2.0,5.0,89,0.08,,,0.31,214.000000,,2013-03-01 00:32:00,
2013-02-28 16:52:00,32.0,31.0,-100.00,NNW,335,0.0,7.0,95,0.01,,,0.32,94.000000,,2013-03-01 00:52:00,
2013-02-28 17:01:00,32.0,31.0,-100.00,NNW,335,0.0,7.0,95,0.01,,,0.32,94.000000,,2013-03-01 01:01:00,
2013-02-28 17:11:00,32.0,31.0,-100.00,NNW,335,0.0,7.0,95,0.01,,,0.32,94.000000,,2013-03-01 01:11:00,
2013-02-28 17:21:00,32.0,31.0,-100.00,NNW,335,0.0,7.0,95,0.01,,,0.32,94.000000,,2013-03-01 01:21:00,
2013-02-28 17:31:00,32.0,31.0,-100.00,NNW,335,0.0,7.0,95,0.01,,,0.32,94.000000,,2013-03-01 01:31:00,
2013-02-28 17:52:00,31.0,30.0,-100.00,NNW,335,0.0,3.0,96,0.00,,,0.32,38.000000,,2013-03-01 01:52:00,
2013-02-28 18:01:00,31.0,30.0,-100.00,NNW,335,0.0,3.0,96,0.00,,,0.32,38.000000,,2013-03-01 02:01:00,
2013-02-28 18:11:00,31.0,30.0,-100.00,NNW,335,0.0,3.0,96,0.00,,,0.32,38.000000,,2013-03-01 02:11:00,
2013-02-28 18:21:00,31.0,30.0,-100.00,NNW,335,0.0,3.0,96,0.00,,,0.32,38.000000,,2013-03-01 02:21:00,
2013-02-28 18:31:00,31.0,30.0,-100.00,NNW,335,0.0,3.0,96,0.00,,,0.32,38.000000,,2013-03-01 02:31:00,
2013-02-28 18:52:00,34.0,34.0,-100.00,NNW,334,2.0,10.0,98,0.00,,,0.32,2.000000,,2013-03-01 02:52:00,
2013-02-28 19:01:00,34.0,34.0,-100.00,NNW,334,2.0,10.0,98,0.00,,,0.32,2.000000,,2013-03-01 03:01:00,
2013-02-28 19:11:00,34.0,34.0,-100.00,NNW,334,2.0,10.0,98,0.00,,,0.32,2.000000,,2013-03-01 03:11:00,
2013-02-28 19:21:00,34.0,34.0,-100.00,NNW,334,2.0,10.0,98,0.00,,,0.32,2.000000,,2013-03-01 03:21:00,
2013-02-28 19:32:00,34.0,34.0,-100.00,NNW,334,2.0,10.0,98,0.00,,,0.32,2.000000,,2013-03-01 03:32:00,
2013-02-28 19:52:00,37.0,36.0,-100.00,NNW,334,3.0,11.0,97,0.01,,,0.33,0.000000,,2013-03-01 03:52:00,
2013-02-28 20:01:00,37.0,36.0,-100.00,NNW,334,3.0,11.0,97,0.01,,,0.33,0.000000,,2013-03-01 04:01:00,
2013-02-28 20:11:00,37.0,36.0,-100.00,NNW,334,3.0,11.0,97,0.01,,,0.33,0.000000,,2013-03-01 04:11:00,
2013-02-28 20:21:00,37.0,36.0,-100.00,NNW,334,3.0,11.0,97,0.01,,,0.33,0.000000,,2013-03-01 04:21:00,
2013-02-28 20:31:00,37.0,36.0,-100.00,NNW,334,3.0,11.0,97,0.01,,,0.33,0.000000,,2013-03-01 04:31:00,
2013-02-28 20:52:00,37.0,35.0,-100.00,NNW,334,3.0,12.0,93,0.01,,,0.34,0.000000,,2013-03-01 04:52:00,
2013-02-28 21:02:00,37.0,35.0,-100.00,NNW,334,3.0,12.0,93,0.01,,,0.34,0.000000,,2013-03-01 05:02:00,
2013-02-28 21:11:00,37.0,35.0,-100.00,NNW,334,3.0,12.0,93,0.01,,,0.34,0.000000,,2013-03-01 05:11:00,
2013-02-28 21:22:00,37.0,35.0,-100.00,NNW,334,3.0,12.0,93,0.01,,,0.34,0.000000,,2013-03-01 05:22:00,
2013-02-28 21:32:00,37.0,35.0,-100.00,NNW,334,3.0,12.0,93,0.01,,,0.34,0.000000,,2013-03-01 05:32:00,
2013-02-28 21:52:00,37.0,35.0,-100.00,NNW,334,3.0,21.0,92,0.00,,,0.34,0.000000,,2013-03-01 05:52:00,
2013-02-28 22:02:00,37.0,35.0,-100.00,NNW,334,3.0,21.0,92,0.00,,,0.34,0.000000,,2013-03-01 06:02:00,
2013-02-28 22:11:00,37.0,35.0,-100.00,NNW,334,3.0,21.0,92,0.00,,,0.34,0.000000,,2013-03-01 06:11:00,
2013-02-28 22:21:00,37.0,35.0,-100.00,NNW,334,3.0,21.0,92,0.00,,,0.34,0.000000,,2013-03-01 06:21:00,
2013-02-28 22:31:00,37.0,35.0,-100.00,NNW,334,3.0,21.0,92,0.00,,,0.34,0.000000,,2013-03-01 06:31:00,
2013-02-28 22:52:00,38.0,35.0,-100.00,NNW,334,5.0,20.0,89,0.00,,,0.34,0.000000,,2013-03-01 06:52:00,
2013-02-28 23:01:00,38.0,35.0,-100.00,NNW,334,5.0,20.0,89,0.00,,,0.34,0.000000,,2013-03-01 07:01:00,
2013-02-28 23:11:00,38.0,35.0,-100.00,NNW,334,5.0,20.0,89,0.00,,,0.34,0.000000,,2013-03-01 07:11:00,
2013-02-28 23:21:00,38.0,35.0,-100.00,NNW,334,5.0,20.0,89,0.00,,,0.34,0.000000,,2013-03-01 07:21:00,
2013-02-28 23:31:00,38.0,35.0,-100.00,NNW,334,5.0,20.0,89,0.00,,,0.34,0.000000,,2013-03-01 07:31:00,
2013-02-28 23:52:00,38.0,35.0,-100.00,NNW,335,5.0,20.0,89,0.00,,,0.34,0.000000,,2013-03-01 07:52:00,